Time,TemperatureF,DewpointF,PressureIn,WindDirection,WindDirectionDegrees,WindSpeedMPH,WindSpeedGustMPH,Humidity,HourlyPrecipIn,Conditions,Clouds,dailyrainin,SoftwareType,DateUTC
2013-07-10 00:01:00,75.7,53.5,29.32,North,10,0.0,0.0,46,0.00,,,0.00,VWS V14.01,2013-07-10 04:01:00,
2013-07-10 00:06:00,75.7,53.5,29.29,North,10,0.0,0.0,46,0.00,,,0.00,VWS V14.01,2013-07-10 04:06:00,
2013-07-10 00:11:00,75.6,53.3,29.29,North,10,0.0,0.0,46,0.00,,,0.00,VWS V14.01,2013-07-10 04:11:00,
2013-07-10 00:16:00,75.6,53.3,29.29,North,10,0.0,0.0,46,0.00,,,0.00,VWS V14.01,2013-07-10 04:16:00,
2013-07-10 00:21:00,75.6,53.3,29.29,North,10,0.0,0.0,46,0.00,,,0.00,VWS V14.01,2013-07-10 04:21:00,
2013-07-10 00:26:00,75.6,53.3,29.29,North,10,0.0,0.0,46,0.00,,,0.00,VWS V14.01,2013-07-10 04:26:00,
2013-07-10 00:31:00,75.6,53.9,29.29,North,10,0.0,0.0,47,0.00,,,0.00,VWS V14.01,2013-07-10 04:31:00,
2013-07-10 00:36:00,75.6,53.9,29.29,North,10,0.0,0.0,47,0.00,,,0.00,VWS V14.01,2013-07-10 04:36:00,
2013-07-10 00:41:00,75.4,53.8,29.29,North,10,0.0,0.0,47,0.00,,,0.00,VWS V14.01,2013-07-10 04:41:00,
2013-07-10 00:46:00,75.4,53.8,29.29,North,10,0.0,0.0,47,0.00,,,0.00,VWS V14.01,2013-07-10 04:46:00,
2013-07-10 00:52:00,75.4,54.3,29.29,NNW,332,0.0,3.1,48,0.00,,,0.00,VWS V14.01,2013-07-10 04:52:00,
2013-07-10 00:56:00,75.2,54.2,29.29,North,0,0.0,0.0,48,0.00,,,0.00,VWS V14.01,2013-07-10 04:56:00,
2013-07-10 01:02:00,75.2,54.2,29.29,North,0,0.0,0.0,48,0.00,,,0.00,VWS V14.01,2013-07-10 05:02:00,
2013-07-10 01:06:00,75.4,54.9,29.29,North,0,0.0,0.0,49,0.00,,,0.00,VWS V14.01,2013-07-10 05:06:00,
2013-07-10 01:11:00,75.4,54.9,29.29,North,0,0.0,0.0,49,0.00,,,0.00,VWS V14.01,2013-07-10 05:11:00,
2013-07-10 01:17:00,75.4,55.5,29.29,North,0,0.0,0.0,50,0.00,,,0.00,VWS V14.01,2013-07-10 05:17:00,
2013-07-10 01:22:00,75.4,55.5,29.29,North,0,0.0,0.0,50,0.00,,,0.00,VWS V14.01,2013-07-10 05:22:00,
2013-07-10 01:27:00,75.4,55.5,29.29,North,0,0.0,0.0,50,0.00,,,0.00,VWS V14.01,2013-07-10 05:27:00,
2013-07-10 01:32:00,75.4,55.5,29.29,North,0,0.0,0.0,50,0.00,,,0.00,VWS V14.01,2013-07-10 05:32:00,
2013-07-10 01:37:00,75.4,55.5,29.29,North,0,0.0,0.0,50,0.00,,,0.00,VWS V14.01,2013-07-10 05:37:00,
2013-07-10 01:42:00,75.4,55.5,29.29,North,0,0.0,0.0,50,0.00,,,0.00,VWS V14.01,2013-07-10 05:42:00,
2013-07-10 01:47:00,75.4,55.5,29.29,North,0,0.0,0.0,50,0.00,,,0.00,VWS V14.01,2013-07-10 05:47:00,
2013-07-10 01:52:00,75.4,55.5,29.29,North,0,0.0,0.0,50,0.00,,,0.00,VWS V14.01,2013-07-10 05:52:00,
2013-07-10 01:57:00,75.4,55.5,29.29,North,0,0.0,0.0,50,0.00,,,0.00,VWS V14.01,2013-07-10 05:57:00,
2013-07-10 02:02:00,75.4,55.5,29.29,North,0,0.0,0.0,50,0.00,,,0.00,VWS V14.01,2013-07-10 06:02:00,
2013-07-10 02:07:00,75.6,57.2,29.29,North,0,0.0,0.0,53,0.00,,,0.00,VWS V14.01,2013-07-10 06:07:00,
2013-07-10 02:12:00,75.6,57.2,29.29,North,0,0.0,0.0,53,0.00,,,0.00,VWS V14.01,2013-07-10 06:12:00,
2013-07-10 02:17:00,75.6,57.2,29.29,North,0,0.0,0.0,53,0.00,,,0.00,VWS V14.01,2013-07-10 06:17:00,
2013-07-10 02:22:00,75.6,57.2,29.29,North,0,0.0,0.0,53,0.00,,,0.00,VWS V14.01,2013-07-10 06:22:00,
2013-07-10 02:27:00,75.6,57.2,29.29,North,0,0.0,0.0,53,0.00,,,0.00,VWS V14.01,2013-07-10 06:27:00,
2013-07-10 02:32:00,75.6,57.2,29.29,North,0,0.0,0.0,53,0.00,,,0.00,VWS V14.01,2013-07-10 06:32:00,
2013-07-10 02:37:00,75.6,58.3,29.29,North,0,0.0,0.0,55,0.00,,,0.00,VWS V14.01,2013-07-10 06:37:00,
2013-07-10 02:42:00,75.6,58.3,29.29,North,0,0.0,0.0,55,0.00,,,0.00,VWS V14.01,2013-07-10 06:42:00,
2013-07-10 02:47:00,75.6,58.3,29.29,North,0,0.0,0.0,55,0.00,,,0.00,VWS V14.01,2013-07-10 06:47:00,
2013-07-10 02:52:00,75.6,58.3,29.29,North,0,0.0,0.0,55,0.00,,,0.00,VWS V14.01,2013-07-10 06:52:00,
2013-07-10 02:57:00,75.6,58.3,29.29,North,0,0.0,0.0,55,0.00,,,0.00,VWS V14.01,2013-07-10 06:57:00,
2013-07-10 03:02:00,75.6,58.3,29.29,North,0,0.0,0.0,55,0.00,,,0.00,VWS V14.01,2013-07-10 07:02:00,
2013-07-10 03:07:00,75.6,58.3,29.26,North,0,0.0,0.0,55,0.00,,,0.00,VWS V14.01,2013-07-10 07:07:00,
2013-07-10 03:12:00,75.6,58.3,29.26,North,0,0.0,0.0,55,0.00,,,0.00,VWS V14.01,2013-07-10 07:12:00,
2013-07-10 03:17:00,75.6,58.3,29.26,North,0,0.0,0.0,55,0.00,,,0.00,VWS V14.01,2013-07-10 07:17:00,
2013-07-10 03:22:00,75.6,58.3,29.26,North,0,0.0,0.0,55,0.00,,,0.00,VWS V14.01,2013-07-10 07:22:00,
2013-07-10 03:27:00,75.6,58.3,29.26,North,0,0.0,0.0,55,0.00,,,0.00,VWS V14.01,2013-07-10 07:27:00,
2013-07-10 03:32:00,75.2,57.4,29.26,North,0,0.0,0.0,54,0.00,,,0.00,VWS V14.01,2013-07-10 07:32:00,
2013-07-10 03:37:00,75.2,57.4,29.26,North,0,0.0,0.0,54,0.00,,,0.00,VWS V14.01,2013-07-10 07:37:00,
2013-07-10 03:42:00,75.2,57.4,29.26,North,0,0.0,0.0,54,0.00,,,0.00,VWS V14.01,2013-07-10 07:42:00,
2013-07-10 03:47:00,75.2,57.4,29.26,North,0,0.0,0.0,54,0.00,,,0.00,VWS V14.01,2013-07-10 07:47:00,
2013-07-10 03:52:00,75.2,57.4,29.29,North,0,0.0,0.0,54,0.00,,,0.00,VWS V14.01,2013-07-10 07:52:00,
2013-07-10 03:57:00,75.0,57.3,29.29,North,0,0.0,0.0,54,0.00,,,0.00,VWS V14.01,2013-07-10 07:57:00,
2013-07-10 04:02:00,75.0,57.8,29.29,North,0,0.0,0.0,55,0.00,,,0.00,VWS V14.01,2013-07-10 08:02:00,
2013-07-10 04:07:00,75.0,57.8,29.29,North,0,0.0,0.0,55,0.00,,,0.00,VWS V14.01,2013-07-10 08:07:00,
2013-07-10 04:12:00,75.0,57.8,29.29,North,0,0.0,0.0,55,0.00,,,0.00,VWS V14.01,2013-07-10 08:12:00,
2013-07-10 04:17:00,75.0,57.8,29.29,North,0,0.0,0.0,55,0.00,,,0.00,VWS V14.01,2013-07-10 08:17:00,
2013-07-10 04:22:00,75.0,57.8,29.29,North,0,0.0,0.0,55,0.00,,,0.00,VWS V14.01,2013-07-10 08:22:00,
2013-07-10 04:27:00,75.0,57.8,29.29,North,0,0.0,0.0,55,0.00,,,0.00,VWS V14.01,2013-07-10 08:27:00,
2013-07-10 04:32:00,75.0,57.8,29.29,North,0,0.0,0.0,55,0.00,,,0.00,VWS V14.01,2013-07-10 08:32:00,
2013-07-10 04:37:00,75.0,57.8,29.29,North,0,0.0,0.0,55,0.00,,,0.00,VWS V14.01,2013-07-10 08:37:00,
2013-07-10 04:42:00,74.8,58.1,29.29,North,0,0.0,0.0,56,0.00,,,0.00,VWS V14.01,2013-07-10 08:42:00,
2013-07-10 04:47:00,74.8,58.1,29.29,North,0,0.0,0.0,56,0.00,,,0.00,VWS V14.01,2013-07-10 08:47:00,
2013-07-10 04:52:00,74.7,58.4,29.26,North,0,0.0,0.0,57,0.00,,,0.00,VWS V14.01,2013-07-10 08:52:00,
2013-07-10 04:57:00,74.7,58.4,29.26,North,0,0.0,0.0,57,0.00,,,0.00,VWS V14.01,2013-07-10 08:57:00,
2013-07-10 05:02:00,74.7,58.4,29.26,North,0,0.0,0.0,57,0.00,,,0.00,VWS V14.01,2013-07-10 09:02:00,
2013-07-10 05:07:00,74.7,58.4,29.26,North,0,0.0,0.0,57,0.00,,,0.00,VWS V14.01,2013-07-10 09:07:00,
2013-07-10 05:12:00,74.7,58.4,29.26,North,0,0.0,0.0,57,0.00,,,0.00,VWS V14.01,2013-07-10 09:12:00,
2013-07-10 05:17:00,74.7,58.4,29.26,North,0,0.0,0.0,57,0.00,,,0.00,VWS V14.01,2013-07-10 09:17:00,
2013-07-10 05:22:00,74.7,58.4,29.26,North,0,0.0,0.0,57,0.00,,,0.00,VWS V14.01,2013-07-10 09:22:00,
2013-07-10 05:27:00,74.7,58.4,29.26,North,0,0.0,0.0,57,0.00,,,0.00,VWS V14.01,2013-07-10 09:27:00,
2013-07-10 05:32:00,74.7,58.9,29.26,North,0,0.0,0.0,58,0.00,,,0.00,VWS V14.01,2013-07-10 09:32:00,
2013-07-10 05:37:00,74.7,58.9,29.26,North,0,0.0,0.0,58,0.00,,,0.00,VWS V14.01,2013-07-10 09:37:00,
2013-07-10 05:42:00,74.5,59.2,29.26,North,0,0.0,0.0,59,0.00,,,0.00,VWS V14.01,2013-07-10 09:42:00,
2013-07-10 05:47:00,74.5,59.2,29.26,North,0,0.0,0.0,59,0.00,,,0.00,VWS V14.01,2013-07-10 09:47:00,
2013-07-10 05:52:00,74.5,59.2,29.26,North,0,0.0,0.0,59,0.00,,,0.00,VWS V14.01,2013-07-10 09:52:00,
2013-07-10 05:57:00,74.5,59.7,29.26,North,0,0.0,0.0,60,0.00,,,0.00,VWS V14.01,2013-07-10 09:57:00,
2013-07-10 06:02:00,74.5,59.7,29.26,North,0,0.0,0.0,60,0.00,,,0.00,VWS V14.01,2013-07-10 10:02:00,
2013-07-10 06:07:00,74.5,59.7,29.26,North,0,0.0,0.0,60,0.00,,,0.00,VWS V14.01,2013-07-10 10:07:00,
2013-07-10 06:12:00,74.5,59.7,29.26,North,0,0.0,0.0,60,0.00,,,0.00,VWS V14.01,2013-07-10 10:12:00,
2013-07-10 06:17:00,74.3,60.0,29.26,North,0,0.0,0.0,61,0.00,,,0.00,VWS V14.01,2013-07-10 10:17:00,
2013-07-10 06:22:00,74.3,60.0,29.26,North,0,0.0,0.0,61,0.00,,,0.00,VWS V14.01,2013-07-10 10:22:00,
2013-07-10 06:28:00,74.5,60.2,29.26,North,0,0.0,0.0,61,0.00,,,0.00,VWS V14.01,2013-07-10 10:28:00,
2013-07-10 06:33:00,74.5,60.2,29.26,North,0,0.0,0.0,61,0.00,,,0.00,VWS V14.01,2013-07-10 10:33:00,
2013-07-10 06:38:00,74.5,60.2,29.29,North,0,0.0,0.0,61,0.00,,,0.00,VWS V14.01,2013-07-10 10:38:00,
2013-07-10 06:43:00,74.5,60.2,29.29,North,0,0.0,0.0,61,0.00,,,0.00,VWS V14.01,2013-07-10 10:43:00,
2013-07-10 06:48:00,74.7,60.8,29.29,North,0,0.0,0.0,62,0.00,,,0.00,VWS V14.01,2013-07-10 10:48:00,
2013-07-10 06:53:00,74.7,60.8,29.29,North,0,0.0,0.0,62,0.00,,,0.00,VWS V14.01,2013-07-10 10:53:00,
2013-07-10 06:58:00,74.8,61.0,29.29,North,0,0.0,0.0,62,0.00,,,0.00,VWS V14.01,2013-07-10 10:58:00,
2013-07-10 07:03:00,74.8,61.0,29.29,North,0,0.0,0.0,62,0.00,,,0.00,VWS V14.01,2013-07-10 11:03:00,
2013-07-10 07:08:00,75.0,61.1,29.29,North,0,0.0,0.0,62,0.00,,,0.00,VWS V14.01,2013-07-10 11:08:00,
2013-07-10 07:13:00,75.2,60.8,29.29,North,0,0.0,0.0,61,0.00,,,0.00,VWS V14.01,2013-07-10 11:13:00,
2013-07-10 07:18:00,75.2,61.3,29.29,North,0,0.0,0.0,62,0.00,,,0.00,VWS V14.01,2013-07-10 11:18:00,
2013-07-10 07:23:00,75.4,61.5,29.29,North,0,0.0,0.0,62,0.00,,,0.00,VWS V14.01,2013-07-10 11:23:00,
2013-07-10 07:28:00,75.6,61.6,29.29,North,0,0.0,0.0,62,0.00,,,0.00,VWS V14.01,2013-07-10 11:28:00,
2013-07-10 07:33:00,75.7,61.8,29.29,North,0,0.0,0.0,62,0.00,,,0.00,VWS V14.01,2013-07-10 11:33:00,
2013-07-10 07:38:00,75.9,62.0,29.29,North,0,0.0,0.0,62,0.00,,,0.00,VWS V14.01,2013-07-10 11:38:00,
2013-07-10 07:43:00,75.9,62.0,29.29,North,0,0.0,0.0,62,0.00,,,0.00,VWS V14.01,2013-07-10 11:43:00,
2013-07-10 07:48:00,76.1,62.2,29.29,North,0,0.0,0.0,62,0.00,,,0.00,VWS V14.01,2013-07-10 11:48:00,
2013-07-10 07:53:00,76.1,62.2,29.29,North,0,0.0,0.0,62,0.00,,,0.00,VWS V14.01,2013-07-10 11:53:00,
2013-07-10 07:58:00,76.1,62.2,29.29,North,0,0.0,0.0,62,0.00,,,0.00,VWS V14.01,2013-07-10 11:58:00,
2013-07-10 08:03:00,76.3,62.3,29.29,North,0,0.0,0.0,62,0.00,,,0.00,VWS V14.01,2013-07-10 12:03:00,
2013-07-10 08:08:00,76.3,62.3,29.29,East,96,0.0,0.0,62,0.00,,,0.00,VWS V14.01,2013-07-10 12:08:00,
2013-07-10 08:13:00,76.3,61.9,29.29,NW,326,0.0,0.0,61,0.00,,,0.00,VWS V14.01,2013-07-10 12:13:00,
2013-07-10 08:18:00,76.5,62.0,29.29,NW,326,0.0,0.0,61,0.00,,,0.00,VWS V14.01,2013-07-10 12:18:00,
2013-07-10 08:23:00,76.5,62.0,29.29,NNW,330,0.0,0.0,61,0.00,,,0.00,VWS V14.01,2013-07-10 12:23:00,
2013-07-10 08:28:00,76.6,62.2,29.29,NNW,330,0.0,0.0,61,0.00,,,0.00,VWS V14.01,2013-07-10 12:28:00,
2013-07-10 08:33:00,77.0,62.5,29.29,NNW,330,0.0,0.0,61,0.00,,,0.00,VWS V14.01,2013-07-10 12:33:00,
2013-07-10 08:38:00,77.4,62.9,29.29,NNW,330,0.0,0.0,61,0.00,,,0.00,VWS V14.01,2013-07-10 12:38:00,
2013-07-10 08:43:00,77.7,63.2,29.29,NNW,334,0.0,0.0,61,0.00,,,0.00,VWS V14.01,2013-07-10 12:43:00,
2013-07-10 08:48:00,77.7,63.2,29.29,NE,43,0.0,0.0,61,0.00,,,0.00,VWS V14.01,2013-07-10 12:48:00,
2013-07-10 08:53:00,78.1,63.1,29.29,East,89,0.0,0.0,60,0.00,,,0.00,VWS V14.01,2013-07-10 12:53:00,
2013-07-10 08:58:00,78.1,63.1,29.29,ENE,65,0.0,0.0,60,0.00,,,0.00,VWS V14.01,2013-07-10 12:58:00,
2013-07-10 09:03:00,78.1,62.6,29.29,SW,225,0.0,0.0,59,0.00,,,0.00,VWS V14.01,2013-07-10 13:03:00,
2013-07-10 09:08:00,77.9,62.4,29.29,ENE,69,0.0,0.0,59,0.00,,,0.00,VWS V14.01,2013-07-10 13:08:00,
2013-07-10 09:13:00,77.5,61.6,29.29,ENE,70,0.0,0.0,58,0.00,,,0.00,VWS V14.01,2013-07-10 13:13:00,
2013-07-10 09:18:00,77.5,61.6,29.29,NNW,327,0.0,0.0,58,0.00,,,0.00,VWS V14.01,2013-07-10 13:18:00,
2013-07-10 09:23:00,77.4,61.4,29.29,NNW,331,0.0,0.0,58,0.00,,,0.00,VWS V14.01,2013-07-10 13:23:00,
2013-07-10 09:28:00,77.4,61.4,29.29,NNW,331,0.0,0.0,58,0.00,,,0.00,VWS V14.01,2013-07-10 13:28:00,
2013-07-10 09:33:00,77.4,61.4,29.29,NNW,330,0.0,0.0,58,0.00,,,0.00,VWS V14.01,2013-07-10 13:33:00,
2013-07-10 09:38:00,77.4,61.4,29.29,NNW,330,0.0,0.0,58,0.00,,,0.00,VWS V14.01,2013-07-10 13:38:00,
2013-07-10 09:43:00,77.4,61.4,29.29,North,6,3.6,3.6,58,0.00,,,0.00,VWS V14.01,2013-07-10 13:43:00,
2013-07-10 09:48:00,77.4,61.4,29.29,WNW,295,0.0,0.0,58,0.00,,,0.00,VWS V14.01,2013-07-10 13:48:00,
2013-07-10 09:53:00,77.4,61.4,29.29,NNE,30,0.0,0.0,58,0.00,,,0.00,VWS V14.01,2013-07-10 13:53:00,
2013-07-10 09:58:00,77.4,61.4,29.29,SE,127,0.0,0.0,58,0.00,,,0.00,VWS V14.01,2013-07-10 13:58:00,
2013-07-10 10:03:00,77.4,61.4,29.29,NNW,340,0.0,0.0,58,0.00,,,0.00,VWS V14.01,2013-07-10 14:03:00,
2013-07-10 10:08:00,77.4,61.4,29.29,NNW,337,2.7,2.7,58,0.00,,,0.00,VWS V14.01,2013-07-10 14:08:00,
2013-07-10 10:13:00,77.4,61.4,29.29,West,281,3.1,3.1,58,0.00,,,0.00,VWS V14.01,2013-07-10 14:13:00,
2013-07-10 10:18:00,77.4,61.4,29.29,NW,310,0.0,0.0,58,0.00,,,0.00,VWS V14.01,2013-07-10 14:18:00,
2013-07-10 10:23:00,77.4,61.4,29.29,NW,306,0.0,0.0,58,0.00,,,0.00,VWS V14.01,2013-07-10 14:23:00,
2013-07-10 10:28:00,77.4,61.4,29.29,NW,305,0.0,2.2,58,0.00,,,0.00,VWS V14.01,2013-07-10 14:28:00,
2013-07-10 10:33:00,77.4,61.4,29.29,ENE,58,0.0,2.2,58,0.00,,,0.00,VWS V14.01,2013-07-10 14:33:00,
2013-07-10 10:38:00,77.4,61.4,29.29,WNW,286,2.7,4.0,58,0.00,,,0.00,VWS V14.01,2013-07-10 14:38:00,
2013-07-10 10:43:00,77.4,61.4,29.29,ENE,66,0.0,2.7,58,0.00,,,0.00,VWS V14.01,2013-07-10 14:43:00,
2013-07-10 10:48:00,77.4,61.4,29.29,NE,52,0.0,0.0,58,0.00,,,0.00,VWS V14.01,2013-07-10 14:48:00,
2013-07-10 10:53:00,77.4,61.4,29.29,East,90,0.0,0.0,58,0.00,,,0.00,VWS V14.01,2013-07-10 14:53:00,
2013-07-10 10:58:00,77.4,61.4,29.29,NNW,327,0.0,0.0,58,0.00,,,0.00,VWS V14.01,2013-07-10 14:58:00,
2013-07-10 11:03:00,77.4,61.4,29.29,WNW,301,0.0,0.0,58,0.00,,,0.00,VWS V14.01,2013-07-10 15:03:00,
2013-07-10 11:08:00,77.4,61.4,29.29,East,91,0.0,0.0,58,0.00,,,0.00,VWS V14.01,2013-07-10 15:08:00,
2013-07-10 11:13:00,77.4,61.4,29.29,East,85,0.0,0.0,58,0.00,,,0.00,VWS V14.01,2013-07-10 15:13:00,
2013-07-10 11:18:00,77.4,61.4,29.29,East,85,0.0,0.0,58,0.00,,,0.00,VWS V14.01,2013-07-10 15:18:00,
2013-07-10 11:23:00,77.4,61.4,29.29,East,85,0.0,0.0,58,0.00,,,0.00,VWS V14.01,2013-07-10 15:23:00,
2013-07-10 11:28:00,77.4,61.4,29.29,WNW,295,0.0,0.0,58,0.00,,,0.00,VWS V14.01,2013-07-10 15:28:00,
2013-07-10 11:33:00,77.4,61.4,29.29,North,357,0.0,0.0,58,0.00,,,0.00,VWS V14.01,2013-07-10 15:33:00,
2013-07-10 11:38:00,77.4,61.4,29.29,NNW,343,0.0,0.0,58,0.00,,,0.00,VWS V14.01,2013-07-10 15:38:00,
2013-07-10 11:43:00,77.4,61.4,29.29,NE,35,0.0,0.0,58,0.00,,,0.00,VWS V14.01,2013-07-10 15:43:00,
2013-07-10 11:48:00,77.4,61.4,29.29,WNW,283,2.2,3.1,58,0.00,,,0.00,VWS V14.01,2013-07-10 15:48:00,
2013-07-10 11:53:00,77.4,61.4,29.29,ENE,72,2.7,2.7,58,0.00,,,0.00,VWS V14.01,2013-07-10 15:53:00,
2013-07-10 11:58:00,77.4,61.4,29.29,NE,43,2.7,3.1,58,0.00,,,0.00,VWS V14.01,2013-07-10 15:58:00,
2013-07-10 12:03:00,77.4,61.4,29.29,ENE,72,0.0,2.7,58,0.00,,,0.00,VWS V14.01,2013-07-10 16:03:00,
2013-07-10 12:08:00,77.4,61.4,29.26,NNW,343,3.1,3.6,58,0.00,,,0.00,VWS V14.01,2013-07-10 16:08:00,
2013-07-10 12:13:00,77.4,61.4,29.26,NW,312,0.0,3.1,58,0.00,,,0.00,VWS V14.01,2013-07-10 16:13:00,
2013-07-10 12:18:00,82.0,60.4,29.26,NW,308,0.0,3.6,48,0.00,,,0.00,VWS V14.01,2013-07-10 16:18:00,
2013-07-10 12:23:00,82.0,60.4,29.29,North,4,2.2,2.2,48,0.00,,,0.00,VWS V14.01,2013-07-10 16:23:00,
2013-07-10 12:28:00,82.0,60.4,29.29,SW,216,0.0,0.0,48,0.00,,,0.00,VWS V14.01,2013-07-10 16:28:00,
2013-07-10 12:33:00,82.0,60.4,29.29,ENE,61,2.7,3.1,48,0.00,,,0.00,VWS V14.01,2013-07-10 16:33:00,
2013-07-10 12:38:00,82.0,60.4,29.29,NNW,342,0.0,0.0,48,0.00,,,0.00,VWS V14.01,2013-07-10 16:38:00,
2013-07-10 12:43:00,83.1,60.2,29.29,NE,41,2.2,3.6,46,0.00,,,0.00,VWS V14.01,2013-07-10 16:43:00,
2013-07-10 12:48:00,83.1,60.2,29.29,North,0,0.0,2.7,46,0.00,,,0.00,VWS V14.01,2013-07-10 16:48:00,
2013-07-10 12:53:00,83.1,60.2,29.29,ESE,108,3.1,3.6,46,0.00,,,0.00,VWS V14.01,2013-07-10 16:53:00,
2013-07-10 12:58:00,84.6,60.9,29.29,SE,142,2.7,3.1,45,0.00,,,0.00,VWS V14.01,2013-07-10 16:58:00,
2013-07-10 13:03:00,84.6,60.3,29.29,North,353,2.2,2.7,44,0.00,,,0.00,VWS V14.01,2013-07-10 17:03:00,
2013-07-10 13:08:00,84.7,59.8,29.26,NE,41,2.2,4.0,43,0.00,,,0.00,VWS V14.01,2013-07-10 17:08:00,
2013-07-10 13:14:00,85.6,58.6,29.26,NE,39,7.6,7.6,40,0.00,,,0.00,VWS V14.01,2013-07-10 17:14:00,
2013-07-10 13:19:00,86.0,57.5,29.29,WNW,303,4.0,4.0,38,0.00,,,0.00,VWS V14.01,2013-07-10 17:19:00,
2013-07-10 13:24:00,87.1,58.4,29.29,SW,229,3.1,3.1,38,0.00,,,0.00,VWS V14.01,2013-07-10 17:24:00,
2013-07-10 13:29:00,87.4,57.2,29.29,NW,318,3.1,3.1,36,0.00,,,0.00,VWS V14.01,2013-07-10 17:29:00,
2013-07-10 13:34:00,87.3,55.5,29.29,NW,313,4.9,4.9,34,0.00,,,0.00,VWS V14.01,2013-07-10 17:34:00,
2013-07-10 13:39:00,86.5,53.2,29.29,WNW,296,4.9,4.9,32,0.00,,,0.00,VWS V14.01,2013-07-10 17:39:00,
2013-07-10 13:44:00,84.2,48.5,29.29,ESE,115,4.0,9.6,29,0.00,,,0.00,VWS V14.01,2013-07-10 17:44:00,
2013-07-10 13:49:00,81.0,46.6,29.29,NNW,345,3.6,5.4,30,0.00,,,0.00,VWS V14.01,2013-07-10 17:49:00,
2013-07-10 13:54:00,78.8,47.3,29.29,SSE,164,3.1,4.0,33,0.00,,,0.00,VWS V14.01,2013-07-10 17:54:00,
2013-07-10 13:59:00,77.5,48.5,29.29,WSW,251,0.0,2.7,36,0.00,,,0.00,VWS V14.01,2013-07-10 17:59:00,
2013-07-10 14:04:00,77.5,48.5,29.26,WNW,288,0.0,2.7,36,0.00,,,0.00,VWS V14.01,2013-07-10 18:04:00,
2013-07-10 14:09:00,77.2,50.3,29.26,NW,305,0.0,0.0,39,0.00,,,0.00,VWS V14.01,2013-07-10 18:09:00,
2013-07-10 14:14:00,77.0,50.9,29.26,NW,307,0.0,0.0,40,0.00,,,0.00,VWS V14.01,2013-07-10 18:14:00,
2013-07-10 14:19:00,77.2,51.7,29.26,WNW,300,0.0,0.0,41,0.00,,,0.00,VWS V14.01,2013-07-10 18:19:00,
2013-07-10 14:24:00,78.1,52.5,29.26,NNW,348,0.0,0.0,41,0.00,,,0.00,VWS V14.01,2013-07-10 18:24:00,
2013-07-10 14:29:00,78.6,53.0,29.26,East,90,0.0,0.0,41,0.00,,,0.00,VWS V14.01,2013-07-10 18:29:00,
2013-07-10 14:34:00,79.0,53.3,29.23,North,353,2.7,2.7,41,0.00,,,0.00,VWS V14.01,2013-07-10 18:34:00,
2013-07-10 14:39:00,79.2,52.8,29.23,North,10,0.0,0.0,40,0.00,,,0.00,VWS V14.01,2013-07-10 18:39:00,
2013-07-10 14:44:00,79.3,53.0,29.23,East,101,0.0,0.0,40,0.00,,,0.00,VWS V14.01,2013-07-10 18:44:00,
2013-07-10 14:49:00,79.9,53.4,29.23,NNW,342,0.0,0.0,40,0.00,,,0.00,VWS V14.01,2013-07-10 18:49:00,
2013-07-10 14:54:00,80.6,53.4,29.23,NW,311,0.0,0.0,39,0.00,,,0.00,VWS V14.01,2013-07-10 18:54:00,
2013-07-10 14:59:00,81.0,53.7,29.23,East,83,0.0,0.0,39,0.00,,,0.00,VWS V14.01,2013-07-10 18:59:00,
2013-07-10 15:04:00,81.3,53.3,29.21,North,353,0.0,2.2,38,0.00,,,0.00,VWS V14.01,2013-07-10 19:04:00,
2013-07-10 15:09:00,81.3,52.6,29.21,WSW,258,3.6,4.0,37,0.00,,,0.00,VWS V14.01,2013-07-10 19:09:00,
2013-07-10 15:14:00,81.5,52.7,29.21,North,0,0.0,0.0,37,0.00,,,0.00,VWS V14.01,2013-07-10 19:14:00,
2013-07-10 15:19:00,81.5,52.0,29.21,NNW,334,0.0,0.0,36,0.00,,,0.00,VWS V14.01,2013-07-10 19:19:00,
2013-07-10 15:24:00,81.7,52.2,29.21,West,280,0.0,2.7,36,0.00,,,0.00,VWS V14.01,2013-07-10 19:24:00,
2013-07-10 15:29:00,81.9,51.5,29.21,East,96,0.0,0.0,35,0.00,,,0.00,VWS V14.01,2013-07-10 19:29:00,
2013-07-10 15:34:00,81.9,52.3,29.21,SSW,195,3.1,3.6,36,0.00,,,0.00,VWS V14.01,2013-07-10 19:34:00,
2013-07-10 15:39:00,82.6,51.4,29.21,ENE,60,0.0,4.0,34,0.00,,,0.00,VWS V14.01,2013-07-10 19:39:00,
2013-07-10 15:44:00,83.3,52.8,29.21,East,91,2.7,3.6,35,0.00,,,0.00,VWS V14.01,2013-07-10 19:44:00,
2013-07-10 15:49:00,83.7,53.1,29.21,ESE,104,2.2,2.2,35,0.00,,,0.00,VWS V14.01,2013-07-10 19:49:00,
2013-07-10 15:54:00,84.2,53.6,29.21,SSE,156,0.0,3.1,35,0.00,,,0.00,VWS V14.01,2013-07-10 19:54:00,
2013-07-10 15:59:00,84.4,53.8,29.21,NE,41,5.8,5.8,35,0.00,,,0.00,VWS V14.01,2013-07-10 19:59:00,
2013-07-10 16:04:00,84.4,53.8,29.18,ENE,59,4.0,4.0,35,0.00,,,0.00,VWS V14.01,2013-07-10 20:04:00,
2013-07-10 16:09:00,84.6,53.9,29.18,ENE,69,2.2,3.1,35,0.00,,,0.00,VWS V14.01,2013-07-10 20:09:00,
2013-07-10 16:14:00,84.9,54.2,29.18,NW,321,2.7,2.7,35,0.00,,,0.00,VWS V14.01,2013-07-10 20:14:00,
2013-07-10 16:19:00,84.9,54.2,29.18,WNW,301,3.1,5.4,35,0.00,,,0.00,VWS V14.01,2013-07-10 20:19:00,
2013-07-10 16:24:00,85.5,54.7,29.18,NNW,336,2.7,2.7,35,0.00,,,0.00,VWS V14.01,2013-07-10 20:24:00,
2013-07-10 16:29:00,85.5,54.7,29.18,NW,318,0.0,3.1,35,0.00,,,0.00,VWS V14.01,2013-07-10 20:29:00,
2013-07-10 16:34:00,85.5,54.7,29.18,NNE,32,2.2,2.7,35,0.00,,,0.00,VWS V14.01,2013-07-10 20:34:00,
2013-07-10 16:39:00,86.7,54.2,29.18,SSE,160,2.2,2.7,33,0.00,,,0.00,VWS V14.01,2013-07-10 20:39:00,
2013-07-10 16:44:00,86.4,53.0,29.18,ESE,109,3.6,3.6,32,0.00,,,0.00,VWS V14.01,2013-07-10 20:44:00,
2013-07-10 16:49:00,86.2,52.9,29.15,NNE,27,0.0,0.0,32,0.00,,,0.00,VWS V14.01,2013-07-10 20:49:00,
2013-07-10 16:54:00,86.5,54.0,29.15,WSW,237,0.0,0.0,33,0.00,,,0.00,VWS V14.01,2013-07-10 20:54:00,
2013-07-10 16:59:00,87.1,54.5,29.15,East,93,3.1,5.4,33,0.00,,,0.00,VWS V14.01,2013-07-10 20:59:00,
2013-07-10 17:04:00,87.1,54.5,29.18,ESE,120,0.0,0.0,33,0.00,,,0.00,VWS V14.01,2013-07-10 21:04:00,
2013-07-10 17:09:00,87.4,54.8,29.18,North,0,0.0,0.0,33,0.00,,,0.00,VWS V14.01,2013-07-10 21:09:00,
2013-07-10 17:14:00,87.4,54.8,29.18,NNE,18,0.0,2.7,33,0.00,,,0.00,VWS V14.01,2013-07-10 21:14:00,
2013-07-10 17:19:00,87.4,54.8,29.18,SW,219,0.0,2.7,33,0.00,,,0.00,VWS V14.01,2013-07-10 21:19:00,
2013-07-10 17:24:00,87.4,53.1,29.18,West,265,4.9,5.4,31,0.00,,,0.00,VWS V14.01,2013-07-10 21:24:00,
2013-07-10 17:29:00,87.4,53.1,29.18,NW,324,2.7,4.0,31,0.00,,,0.00,VWS V14.01,2013-07-10 21:29:00,
2013-07-10 17:34:00,87.4,53.1,29.18,ESE,109,0.0,0.0,31,0.00,,,0.00,VWS V14.01,2013-07-10 21:34:00,
2013-07-10 17:39:00,87.4,53.1,29.18,East,86,2.2,2.2,31,0.00,,,0.00,VWS V14.01,2013-07-10 21:39:00,
2013-07-10 17:44:00,87.4,53.1,29.18,East,86,5.4,5.4,31,0.00,,,0.00,VWS V14.01,2013-07-10 21:44:00,
2013-07-10 17:49:00,87.4,53.1,29.18,East,79,2.7,2.7,31,0.00,,,0.00,VWS V14.01,2013-07-10 21:49:00,
2013-07-10 17:50:00,87.4,53.1,29.18,ESE,104,0.0,0.0,31,0.00,,,0.00,VWS V14.01,2013-07-10 21:50:00,
2013-07-10 17:55:00,86.7,54.2,29.18,NNW,343,0.0,0.0,33,0.00,,,0.00,VWS V14.01,2013-07-10 21:55:00,
2013-07-10 18:00:00,86.7,54.2,29.18,WSW,246,0.0,0.0,33,0.00,,,0.00,VWS V14.01,2013-07-10 22:00:00,
2013-07-10 18:05:00,86.7,54.2,29.18,WNW,295,0.0,0.0,33,0.00,,,0.00,VWS V14.01,2013-07-10 22:05:00,
2013-07-10 18:10:00,86.7,54.2,29.18,East,82,0.0,2.7,33,0.00,,,0.00,VWS V14.01,2013-07-10 22:10:00,
2013-07-10 18:15:00,87.1,55.3,29.18,NNW,329,0.0,0.0,34,0.00,,,0.00,VWS V14.01,2013-07-10 22:15:00,
2013-07-10 18:20:00,87.1,55.3,29.18,NE,42,0.0,2.7,34,0.00,,,0.00,VWS V14.01,2013-07-10 22:20:00,
2013-07-10 18:25:00,87.1,55.3,29.18,ESE,112,3.1,4.0,34,0.00,,,0.00,VWS V14.01,2013-07-10 22:25:00,
2013-07-10 18:30:00,87.1,55.3,29.18,East,89,0.0,0.0,34,0.00,,,0.00,VWS V14.01,2013-07-10 22:30:00,
2013-07-10 18:35:00,87.1,55.3,29.18,West,267,2.2,2.2,34,0.00,,,0.00,VWS V14.01,2013-07-10 22:35:00,
2013-07-10 18:40:00,87.1,55.3,29.18,East,93,2.2,2.2,34,0.00,,,0.00,VWS V14.01,2013-07-10 22:40:00,
2013-07-10 18:45:00,85.5,53.1,29.18,ENE,77,2.7,3.1,33,0.00,,,0.00,VWS V14.01,2013-07-10 22:45:00,
2013-07-10 18:50:00,85.5,53.1,29.18,East,94,0.0,0.0,33,0.00,,,0.00,VWS V14.01,2013-07-10 22:50:00,
2013-07-10 18:55:00,84.9,53.5,29.18,East,98,0.0,0.0,34,0.00,,,0.00,VWS V14.01,2013-07-10 22:55:00,
2013-07-10 19:00:00,84.7,53.3,29.18,SE,130,0.0,0.0,34,0.00,,,0.00,VWS V14.01,2013-07-10 23:00:00,
2013-07-10 19:01:00,84.7,53.3,29.18,ESE,116,0.0,0.0,34,0.00,,,0.00,VWS V14.01,2013-07-10 23:01:00,
2013-07-10 19:06:00,84.4,53.0,29.18,NNE,19,0.0,0.0,34,0.00,,,0.00,VWS V14.01,2013-07-10 23:06:00,
2013-07-10 19:11:00,84.4,53.8,29.18,East,95,0.0,0.0,35,0.00,,,0.00,VWS V14.01,2013-07-10 23:11:00,
2013-07-10 19:16:00,84.0,54.2,29.18,East,87,0.0,2.2,36,0.00,,,0.00,VWS V14.01,2013-07-10 23:16:00,
2013-07-10 19:21:00,83.8,54.1,29.18,West,261,2.2,2.7,36,0.00,,,0.00,VWS V14.01,2013-07-10 23:21:00,
2013-07-10 19:26:00,83.7,54.7,29.18,ENE,67,0.0,0.0,37,0.00,,,0.00,VWS V14.01,2013-07-10 23:26:00,
2013-07-10 19:31:00,83.5,54.5,29.18,NNW,342,0.0,0.0,37,0.00,,,0.00,VWS V14.01,2013-07-10 23:31:00,
2013-07-10 19:36:00,83.1,54.9,29.18,East,96,0.0,0.0,38,0.00,,,0.00,VWS V14.01,2013-07-10 23:36:00,
2013-07-10 19:41:00,82.9,54.8,29.18,East,91,0.0,0.0,38,0.00,,,0.00,VWS V14.01,2013-07-10 23:41:00,
2013-07-10 19:46:00,82.8,54.6,29.18,South,182,0.0,0.0,38,0.00,,,0.00,VWS V14.01,2013-07-10 23:46:00,
2013-07-10 19:51:00,82.4,55.0,29.21,WSW,243,0.0,0.0,39,0.00,,,0.00,VWS V14.01,2013-07-10 23:51:00,
2013-07-10 19:56:00,82.2,54.8,29.21,East,97,0.0,4.0,39,0.00,,,0.00,VWS V14.01,2013-07-10 23:56:00,
2013-07-10 20:01:00,81.9,54.5,29.21,NW,308,0.0,3.6,39,0.00,,,0.00,VWS V14.01,2013-07-11 00:01:00,
2013-07-10 20:06:00,81.5,53.5,29.18,WSW,255,2.2,3.6,38,0.00,,,0.00,VWS V14.01,2013-07-11 00:06:00,
2013-07-10 20:11:00,81.1,52.4,29.18,SSE,161,2.2,3.1,37,0.00,,,0.00,VWS V14.01,2013-07-11 00:11:00,
2013-07-10 20:16:00,81.0,51.5,29.18,ENE,58,2.2,2.7,36,0.00,,,0.00,VWS V14.01,2013-07-11 00:16:00,
2013-07-10 20:21:00,80.6,51.2,29.18,North,6,0.0,0.0,36,0.00,,,0.00,VWS V14.01,2013-07-11 00:21:00,
2013-07-10 20:26:00,80.4,51.0,29.18,ENE,77,0.0,0.0,36,0.00,,,0.00,VWS V14.01,2013-07-11 00:26:00,
2013-07-10 20:31:00,80.1,50.0,29.18,WNW,299,3.1,3.1,35,0.00,,,0.00,VWS V14.01,2013-07-11 00:31:00,
2013-07-10 20:36:00,79.9,49.8,29.21,East,84,3.6,3.6,35,0.00,,,0.00,VWS V14.01,2013-07-11 00:36:00,
2013-07-10 20:41:00,79.7,49.7,29.21,East,94,2.7,2.7,35,0.00,,,0.00,VWS V14.01,2013-07-11 00:41:00,
2013-07-10 20:46:00,79.3,49.3,29.21,East,88,3.6,3.6,35,0.00,,,0.00,VWS V14.01,2013-07-11 00:46:00,
2013-07-10 20:51:00,79.2,49.2,29.18,SSE,152,2.7,4.0,35,0.00,,,0.00,VWS V14.01,2013-07-11 00:51:00,
2013-07-10 20:56:00,79.2,49.2,29.18,ENE,74,0.0,0.0,35,0.00,,,0.00,VWS V14.01,2013-07-11 00:56:00,
2013-07-10 20:57:00,79.2,49.2,29.18,NE,39,0.0,0.0,35,0.00,,,0.00,VWS V14.01,2013-07-11 00:57:00,
2013-07-10 21:02:00,78.8,48.9,29.18,NE,34,2.2,2.7,35,0.00,,,0.00,VWS V14.01,2013-07-11 01:02:00,
2013-07-10 21:07:00,78.8,48.9,29.18,SE,126,2.2,5.4,35,0.00,,,0.00,VWS V14.01,2013-07-11 01:07:00,
2013-07-10 21:12:00,78.4,49.3,29.18,NW,315,0.0,0.0,36,0.00,,,0.00,VWS V14.01,2013-07-11 01:12:00,
2013-07-10 21:17:00,78.3,49.1,29.18,SSE,156,0.0,0.0,36,0.00,,,0.00,VWS V14.01,2013-07-11 01:17:00,
2013-07-10 21:22:00,78.3,49.1,29.18,ENE,58,0.0,0.0,36,0.00,,,0.00,VWS V14.01,2013-07-11 01:22:00,
2013-07-10 21:27:00,78.1,49.7,29.18,ENE,61,3.1,3.1,37,0.00,,,0.00,VWS V14.01,2013-07-11 01:27:00,
2013-07-10 21:33:00,77.9,49.6,29.18,NNE,29,2.2,3.1,37,0.00,,,0.00,VWS V14.01,2013-07-11 01:33:00,
2013-07-10 21:38:00,77.9,50.3,29.18,North,357,0.0,0.0,38,0.00,,,0.00,VWS V14.01,2013-07-11 01:38:00,
2013-07-10 21:42:00,77.7,50.1,29.18,NE,48,0.0,0.0,38,0.00,,,0.00,VWS V14.01,2013-07-11 01:42:00,
2013-07-10 21:47:00,77.7,50.1,29.18,East,87,0.0,0.0,38,0.00,,,0.00,VWS V14.01,2013-07-11 01:47:00,
2013-07-10 21:53:00,77.5,50.0,29.18,ENE,66,2.2,3.1,38,0.00,,,0.00,VWS V14.01,2013-07-11 01:53:00,
2013-07-10 21:58:00,77.5,50.7,29.18,East,89,0.0,0.0,39,0.00,,,0.00,VWS V14.01,2013-07-11 01:58:00,
2013-07-10 22:03:00,77.4,50.5,29.18,East,84,0.0,0.0,39,0.00,,,0.00,VWS V14.01,2013-07-11 02:03:00,
2013-07-10 22:08:00,77.4,51.2,29.18,SW,218,0.0,0.0,40,0.00,,,0.00,VWS V14.01,2013-07-11 02:08:00,
2013-07-10 22:13:00,77.2,51.0,29.18,West,263,0.0,2.2,40,0.00,,,0.00,VWS V14.01,2013-07-11 02:13:00,
2013-07-10 22:18:00,77.2,51.0,29.18,NNE,12,0.0,0.0,40,0.00,,,0.00,VWS V14.01,2013-07-11 02:18:00,
2013-07-10 22:23:00,77.2,51.0,29.18,North,0,0.0,2.7,40,0.00,,,0.00,VWS V14.01,2013-07-11 02:23:00,
2013-07-10 22:28:00,77.2,51.7,29.18,ESE,122,0.0,0.0,41,0.00,,,0.00,VWS V14.01,2013-07-11 02:28:00,
2013-07-10 22:33:00,77.2,51.7,29.18,NE,44,3.1,3.1,41,0.00,,,0.00,VWS V14.01,2013-07-11 02:33:00,
2013-07-10 22:38:00,77.2,51.7,29.18,NE,52,0.0,0.0,41,0.00,,,0.00,VWS V14.01,2013-07-11 02:38:00,
2013-07-10 22:43:00,77.4,53.1,29.18,NNE,20,0.0,2.7,43,0.00,,,0.00,VWS V14.01,2013-07-11 02:43:00,
2013-07-10 22:48:00,77.7,53.5,29.18,WNW,284,3.1,5.4,43,0.00,,,0.00,VWS V14.01,2013-07-11 02:48:00,
2013-07-10 22:53:00,77.7,53.5,29.21,WNW,296,3.6,5.8,43,0.00,,,0.00,VWS V14.01,2013-07-11 02:53:00,
2013-07-10 22:58:00,77.7,53.5,29.21,NE,49,2.2,3.6,43,0.00,,,0.00,VWS V14.01,2013-07-11 02:58:00,
2013-07-10 23:03:00,77.7,53.5,29.21,East,81,0.0,0.0,43,0.00,,,0.00,VWS V14.01,2013-07-11 03:03:00,
2013-07-10 23:08:00,77.7,53.5,29.21,NW,326,3.1,3.1,43,0.00,,,0.00,VWS V14.01,2013-07-11 03:08:00,
2013-07-10 23:13:00,77.5,53.3,29.21,NNW,334,0.0,3.1,43,0.00,,,0.00,VWS V14.01,2013-07-11 03:13:00,
2013-07-10 23:18:00,77.4,53.1,29.21,North,1,2.7,3.1,43,0.00,,,0.00,VWS V14.01,2013-07-11 03:18:00,
2013-07-10 23:23:00,77.2,53.0,29.18,NW,304,2.2,4.0,43,0.00,,,0.00,VWS V14.01,2013-07-11 03:23:00,
2013-07-10 23:28:00,77.2,52.3,29.18,NW,320,0.0,3.6,42,0.00,,,0.00,VWS V14.01,2013-07-11 03:28:00,
2013-07-10 23:33:00,77.2,51.7,29.18,NNW,341,2.2,3.6,41,0.00,,,0.00,VWS V14.01,2013-07-11 03:33:00,
2013-07-10 23:38:00,77.0,51.5,29.18,NNW,339,0.0,0.0,41,0.00,,,0.00,VWS V14.01,2013-07-11 03:38:00,
2013-07-10 23:43:00,77.0,50.9,29.18,NNW,336,0.0,0.0,40,0.00,,,0.00,VWS V14.01,2013-07-11 03:43:00,
2013-07-10 23:48:00,76.8,51.4,29.18,NNW,332,0.0,0.0,41,0.00,,,0.00,VWS V14.01,2013-07-11 03:48:00,
2013-07-10 23:53:00,76.8,52.0,29.18,NNW,335,0.0,0.0,42,0.00,,,0.00,VWS V14.01,2013-07-11 03:53:00,
2013-07-10 23:58:00,76.6,51.8,29.18,NNW,334,0.0,0.0,42,0.00,,,0.00,VWS V14.01,2013-07-11 03:58:00,